CW7410 Weather Reports


Display with metric or nautical units.
time (UTC)temp
F
wind
direction
speed
MPH
gust
MPH
rain 1hr
in
rain 24hr
in
rain mn
in
humidity
%
barometer
mb
20260901063102 61 119 5.0 9.0 0.00 0.07 0.00 78 1017.6
20260901061558 61 100 6.0 10.0 0.00 0.07 0.00 78 1017.6
20260901054600 60 122 7.0 12.0 0.00 0.07 0.07 78 1017.9
20260901053102 60 93 7.0 14.0 0.00 0.07 0.07 79 1018.1
20260901051606 60 132 7.0 13.0 0.00 0.07 0.07 79 1018.1
20260901044606 60 0 2.0 6.0 0.00 0.07 0.07 78 1018.4
20260901043109 60 140 3.0 9.0 0.00 0.07 0.07 78 1018.2
20260901041617 60 148 6.0 9.0 0.00 0.07 0.07 78 1018.5
20260901040135 60 130 4.0 8.0 0.00 0.07 0.07 78 1018.6
20260901034558 60 109 5.0 9.0 0.00 0.07 0.07 78 1018.5
20260901033059 60 165 4.0 9.0 0.00 0.07 0.07 77 1018.5
20260901031557 61 132 1.0 4.0 0.00 0.07 0.07 77 1018.2
20260901030057 61 155 4.0 7.0 0.00 0.07 0.07 77 1018.4
20260901024558 61 182 4.0 11.0 0.00 0.07 0.07 77 1018.1
20260901023103 61 116 4.0 11.0 0.01 0.07 0.07 77 1018.0
20260901021556 61 145 7.0 16.0 0.01 0.07 0.07 77 1018.2
20260901020059 61 114 10.0 20.0 0.01 0.07 0.07 77 1018.4
20260901014556 61 111 11.0 19.0 0.01 0.07 0.07 77 1018.6
20260901013100 61 127 9.0 21.0 0.02 0.06 0.06 77 1018.5
20260901011556 62 105 16.0 27.0 0.05 0.06 0.06 77 1018.5
20260901010113 62 130 19.0 31.0 0.05 0.06 0.06 77 1018.3
20260901004603 62 118 20.0 36.0 0.05 0.05 0.05 76 1018.2
20260901003104 63 105 22.0 42.0 0.04 0.04 0.04 71 1017.9
20260901001555 66 89 28.0 42.0 0.01 0.01 0.01 65 1016.8
20260901000100 67 104 27.0 42.0 0.01 0.01 0.01 61 1016.7
20260831234556 70 111 21.0 32.0 0.00 0.00 0.00 54 1016.1
20260831233055 73 161 8.0 18.0 0.00 0.00 0.00 51 1015.7
20260831231600 75 360 12.0 20.0 0.00 0.00 0.00 50 1015.3
20260831230114 77 279 3.0 6.0 0.00 0.00 0.00 52 1014.9
20260831224557 78 296 2.0 6.0 0.00 0.00 0.00 50 1014.7
20260831223110 79 284 3.0 6.0 0.00 0.00 0.00 48 1014.4
20260831221600 79 336 2.0 5.0 0.00 0.00 0.00 49 1014.5
20260831220058 80 310 2.0 4.0 0.00 0.00 0.00 49 1014.5
20260831214611 80 253 0.0 3.0 0.00 0.00 0.00 50 1014.7
20260831213106 80 292 1.0 6.0 0.00 0.00 0.00 49 1014.8
20260831211559 81 327 1.0 4.0 0.00 0.00 0.00 46 1015.0
20260831210100 81 178 3.0 4.0 0.00 0.00 0.00 45 1015.2
20260831204603 81 205 0.0 6.0 0.00 0.00 0.00 45 1015.3
20260831203109 80 298 1.0 4.0 0.00 0.00 0.00 47 1015.5
20260831201551 79 87 1.0 5.0 0.00 0.00 0.00 49 1015.8
20260831200110 78 296 0.0 4.0 0.00 0.00 0.00 47 1016.0
20260831194629 78 270 2.0 6.0 0.00 0.00 0.00 49 1016.2
20260831193100 79 250 1.0 6.0 0.00 0.00 0.00 48 1016.3
20260831191558 79 0 0.0 6.0 0.00 0.00 0.00 49 1016.5
20260831190108 78 12 1.0 4.0 0.00 0.00 0.00 51 1016.5
20260831184601 78 0 0.0 3.0 0.00 0.00 0.00 50 1016.9
20260831183113 78 0 2.0 4.0 0.00 0.00 0.00 49 1017.2
20260831181611 78 313 0.0 6.0 0.00 0.00 0.00 47 1017.4
20260831180114 79 111 2.0 6.0 0.00 0.00 0.00 46 1017.5
20260831174602 78 182 1.0 7.0 0.00 0.02 0.00 46 1017.5
20260831173059 77 0 0.0 7.0 0.00 0.02 0.00 51 1017.5
20260831171601 77 220 2.0 7.0 0.00 0.02 0.00 50 1017.6
20260831170114 77 267 3.0 7.0 0.00 0.02 0.00 50 1017.6
20260831164556 76 233 1.0 8.0 0.00 0.02 0.00 49 1017.4
20260831163102 76 219 1.0 5.0 0.00 0.02 0.00 50 1017.3
20260831161601 74 0 1.0 5.0 0.00 0.02 0.00 51 1017.1
20260831160058 73 13 2.0 5.0 0.00 0.02 0.00 58 1017.2
20260831154628 72 310 2.0 5.0 0.00 0.02 0.00 58 1017.3
20260831153057 70 0 1.0 4.0 0.00 0.02 0.00 65 1017.5
20260831151612 67 23 1.0 3.0 0.00 0.02 0.00 71 1017.7
20260831150100 65 31 1.0 4.0 0.00 0.02 0.00 77 1017.7
20260831144605 62 360 4.0 5.0 0.00 0.02 0.00 79 1017.7
20260831143059 60 360 3.0 5.0 0.00 0.02 0.00 81 1017.8
20260831141602 57 65 2.0 4.0 0.00 0.02 0.00 83 1017.8
20260831140100 54 74 2.0 3.0 0.00 0.02 0.00 83 1017.6
20260831134600 53 69 1.0 4.0 0.00 0.02 0.00 81 1017.6
20260831133058 52 72 2.0 4.0 0.00 0.02 0.00 81 1017.5
20260831131614 52 64 2.0 4.0 0.00 0.02 0.00 80 1017.3
20260831130112 52 79 1.0 6.0 0.00 0.02 0.00 80 1017.2
20260831124607 52 92 1.0 2.0 0.00 0.02 0.00 80 1017.1
20260831123058 53 173 1.0 3.0 0.00 0.02 0.00 80 1017.2
20260831121555 53 0 0.0 2.0 0.00 0.02 0.00 80 1017.2
20260831120104 53 173 1.0 5.0 0.00 0.02 0.00 80 1017.4
20260831114602 53 71 2.0 4.0 0.00 0.03 0.00 79 1017.1
20260831113104 53 86 2.0 4.0 0.00 0.03 0.00 79 1017.1
20260831111555 53 355 2.0 4.0 0.00 0.03 0.00 79 1017.0
20260831110054 54 334 1.0 3.0 0.00 0.03 0.00 79 1016.9
20260831104612 54 340 3.0 4.0 0.00 0.03 0.00 78 1016.8
20260831103055 54 340 1.0 4.0 0.00 0.03 0.00 78 1016.9
20260831101559 54 330 2.0 3.0 0.00 0.03 0.00 78 1016.9
20260831100108 54 332 2.0 4.0 0.00 0.03 0.00 78 1016.7
20260831094600 54 13 1.0 3.0 0.00 0.09 0.00 77 1016.7
20260831093103 54 13 2.0 4.0 0.00 0.09 0.00 77 1016.7
20260831091559 54 17 3.0 4.0 0.00 0.09 0.00 76 1016.8
20260831090106 54 32 2.0 4.0 0.00 0.09 0.00 75 1016.7
20260831084611 54 30 2.0 4.0 0.00 0.09 0.00 75 1016.9
20260831083100 55 24 1.0 3.0 0.00 0.09 0.00 74 1016.9
20260831081556 55 24 1.0 3.0 0.00 0.09 0.00 76 1016.9
20260831080106 55 24 2.0 3.0 0.00 0.09 0.00 73 1017.0
20260831074601 56 24 3.0 4.0 0.00 0.09 0.00 72 1017.0
20260831073103 56 26 1.0 4.0 0.00 0.09 0.00 72 1017.1
20260831071558 56 355 2.0 4.0 0.00 0.09 0.00 71 1017.1
20260831070115 57 5 3.0 4.0 0.00 0.09 0.00 70 1017.1
20260831064601 56 307 3.0 7.0 0.00 0.09 0.00 70 1016.9